Weather History for Rome, GA

Change the Weather History Date:

Tuesday, December 11, 2012

  Actual Average Record
Temperature  
Mean Temperature 40 °F 43 °F  
Max Temperature 45 °F 54 °F 77 °F (2007)
Min Temperature 35 °F 33 °F 23 °F (2013)
Degree Days  
Heating Degree Days 25 22  
Month to date heating degree days 227  
Since 1 July heating degree days 834  
Moisture  
Dew Point 32 °F    
Average Humidity 76    
Maximum Humidity 89    
Minimum Humidity 61    
Precipitation  
Precipitation 0.00 in 0.17 in 1.96 in (2008)
Month to date precipitation 1.99  
Snow  
Snow 0.00 in - - ()
Month to date snowfall  
Since 1 July snowfall  
Snow Depth -    
Sea Level Pressure  
Sea Level Pressure 30.06 in    
Wind  
Wind Speed 6 mph (North)    
Max Wind Speed 10 mph    
Max Gust Speed -    
Visibility 10 miles    
Events      
T = Trace of Precipitation, MM = Missing Value Source: NWS Daily Summary

Daily Weather History Graph

Daily Weather History Graph

Search for Another Location

Airport:

Trip Planner

Search our weather history database for the weather conditions in past years. The results will help you decide how hot, cold, wet, or windy it might be!

Date:

Astronomy

Dec. 11, 2012 Rise Set
Actual Time 7:37 AM EST 5:31 PM EST
Civil Twilight 7:09 AM EST 5:58 PM EST
Nautical Twilight 6:38 AM EST 6:30 PM EST
Astronomical Twilight 6:07 AM EST 7:00 PM EST
Moon 5:33 AM EST (12/11) 4:07 PM EST (12/11)
Length of Visible Light 10h 49m
Length of Day
9h 53m
Waning Crescent, 4% of the Moon is Illuminated
Dec 11
Waning Crescent
Dec 13
New
Dec 20
First Quarter
Dec 28
Full
Jan 4
Last Quarter

Hourly Weather History & Observations

Time (EST) Temp. Windchill Dew Point Humidity Pressure Visibility Wind Dir Wind Speed Gust Speed Precip Events Conditions
12:53 AM 45.0 °F 41.8 °F 37.9 °F 76% 29.91 in 10.0 mi North 5.8 mph - N/A   Overcast
1:53 AM 43.0 °F - 37.0 °F 80% 29.92 in 10.0 mi Calm Calm - N/A   Overcast
2:38 AM 39.2 °F 33.6 °F 35.6 °F 87% 29.93 in 10.0 mi North 8.1 mph - N/A   Scattered Clouds
2:53 AM 39.9 °F 35.1 °F 34.0 °F 79% 29.92 in 10.0 mi North 6.9 mph - N/A   Clear
3:53 AM 37.0 °F 33.3 °F 33.1 °F 86% 29.94 in 10.0 mi NNW 4.6 mph - N/A   Clear
4:53 AM 36.0 °F 32.1 °F 32.0 °F 86% 29.97 in 10.0 mi NW 4.6 mph - N/A   Partly Cloudy
5:53 AM 35.1 °F 32.2 °F 32.0 °F 89% 29.98 in 10.0 mi NNW 3.5 mph - N/A   Clear
6:22 AM 35.6 °F 32.8 °F 32.0 °F 87% 30.00 in 10.0 mi NNW 3.5 mph - N/A   Mostly Cloudy
6:53 AM 37.0 °F 32.4 °F 32.0 °F 82% 30.02 in 10.0 mi NNW 5.8 mph - N/A   Overcast
7:53 AM 37.0 °F 31.0 °F 30.9 °F 79% 30.05 in 10.0 mi North 8.1 mph - N/A   Overcast
8:53 AM 36.0 °F 29.0 °F 30.0 °F 79% 30.08 in 10.0 mi NNW 9.2 mph - N/A   Overcast
9:53 AM 37.9 °F 32.7 °F 30.9 °F 76% 30.09 in 10.0 mi NNW 6.9 mph - N/A   Overcast
10:53 AM 39.0 °F 32.3 °F 30.9 °F 73% 30.09 in 10.0 mi North 10.4 mph - N/A   Overcast
11:53 AM 39.9 °F 34.5 °F 32.0 °F 73% 30.11 in 10.0 mi North 8.1 mph - N/A   Overcast
12:53 PM 41.0 °F 35.2 °F 32.0 °F 70% 30.07 in 10.0 mi NNW 9.2 mph - N/A   Overcast
1:53 PM 41.0 °F 36.4 °F 32.0 °F 70% 30.08 in 10.0 mi NNW 6.9 mph - N/A   Mostly Cloudy
2:50 PM 42.8 °F 38.0 °F 30.2 °F 61% 30.09 in 10.0 mi North 8.1 mph - N/A   Scattered Clouds
2:53 PM 42.1 °F 37.7 °F 30.9 °F 65% 30.09 in 10.0 mi North 6.9 mph - N/A   Scattered Clouds
3:53 PM 41.0 °F 36.4 °F 30.0 °F 65% 30.09 in 10.0 mi North 6.9 mph - N/A   Clear
4:53 PM 39.9 °F 35.8 °F 30.0 °F 68% 30.12 in 10.0 mi North 5.8 mph - N/A   Clear
5:53 PM 39.0 °F 35.7 °F 30.0 °F 70% 30.12 in 10.0 mi North 4.6 mph - N/A   Clear
6:53 PM 37.0 °F 34.5 °F 30.9 °F 79% 30.12 in 10.0 mi NNE 3.5 mph - N/A   Clear
7:53 PM 37.0 °F 34.5 °F 30.9 °F 79% 30.13 in 10.0 mi NNE 3.5 mph - N/A   Clear
8:53 PM 36.0 °F 32.1 °F 30.0 °F 79% 30.14 in 10.0 mi North 4.6 mph - N/A   Clear
9:53 PM 37.0 °F 32.4 °F 30.0 °F 76% 30.16 in 10.0 mi North 5.8 mph - N/A   Clear
10:53 PM 37.0 °F 31.0 °F 30.0 °F 76% 30.16 in 10.0 mi North 8.1 mph - N/A   Clear
11:53 PM 37.9 °F 32.7 °F 30.0 °F 73% 30.17 in 10.0 mi North 6.9 mph - N/A   Clear